UAL2322 CYVR-KSFO

Flight info

Callsign UAL2322
Flight time 1h 44m
Altitude 39000
Route VIXOR DCT ELMAA Q1 ETCHY DCT MLBEC BDEGA4
Aircraft B772/H-SDE2E3FGHIJ5LORVWXY/LB1D1

Departure

Time 2026-05-05 04:15
Airport Vancouver International Airport (CYVR)

Arrival

Time 2026-05-05 05:59
Airport San Francisco International Airport (KSFO)
Time Latitude Longitude Altitude Speed Heading
2026-05-05 03:59 49.19956 -123.18282 27 ft 0 kts 189°
2026-05-05 04:05 49.19964 -123.18280 27 ft 4 kts 189°
2026-05-05 04:05 49.19985 -123.18275 26 ft 4 kts 192°
2026-05-05 04:05 49.20009 -123.18261 26 ft 4 kts 221°
2026-05-05 04:06 49.20018 -123.18234 26 ft 3 kts 279°
2026-05-05 04:06 49.20014 -123.18195 25 ft 1 kts 279°
2026-05-05 04:07 49.20015 -123.18203 24 ft 8 kts 279°
2026-05-05 04:07 49.20039 -123.18426 26 ft 26 kts 276°
2026-05-05 04:08 49.19941 -123.18549 27 ft 21 kts 190°
2026-05-05 04:08 49.19800 -123.18585 27 ft 21 kts 189°
2026-05-05 04:08 49.19670 -123.18667 27 ft 21 kts 196°
2026-05-05 04:08 49.19530 -123.18710 27 ft 20 kts 189°
2026-05-05 04:09 49.19390 -123.18700 27 ft 20 kts 167°
2026-05-05 04:09 49.19297 -123.18709 27 ft 0 kts 192°
2026-05-05 04:09 49.19256 -123.18725 27 ft 8 kts 199°
2026-05-05 04:10 49.19256 -123.18823 27 ft 19 kts 322°
2026-05-05 04:10 49.19351 -123.19029 27 ft 22 kts 262°
2026-05-05 04:10 49.19327 -123.19259 26 ft 22 kts 260°
2026-05-05 04:10 49.19300 -123.19489 27 ft 22 kts 259°
2026-05-05 04:11 49.19271 -123.19718 27 ft 22 kts 259°
2026-05-05 04:11 49.19241 -123.19946 27 ft 22 kts 259°
2026-05-05 04:11 49.19214 -123.20176 27 ft 22 kts 259°
2026-05-05 04:11 49.19176 -123.20393 28 ft 19 kts 227°
2026-05-05 04:12 49.19083 -123.20436 28 ft 4 kts 191°
2026-05-05 04:12 49.19078 -123.20437 28 ft 0 kts 191°
2026-05-05 04:12 49.19075 -123.20438 28 ft 5 kts 191°
2026-05-05 04:13 49.18987 -123.20457 28 ft 11 kts 167°
2026-05-05 04:13 49.18963 -123.20392 28 ft 7 kts 101°
2026-05-05 04:13 49.18962 -123.20383 28 ft 0 kts 101°
2026-05-05 04:14 49.18953 -123.20307 28 ft 29 kts 100°
2026-05-05 04:14 49.18864 -123.19524 28 ft 120 kts 100°
2026-05-05 04:14 49.18698 -123.18004 433 ft 153 kts 99°
2026-05-05 04:15 49.18529 -123.16366 1328 ft 162 kts 100°
2026-05-05 04:15 49.18344 -123.14646 2283 ft 166 kts 100°
2026-05-05 04:15 49.18154 -123.12869 3008 ft 173 kts 99°
2026-05-05 04:15 49.17976 -123.11061 3699 ft 184 kts 98°
2026-05-05 04:16 49.17786 -123.08950 4056 ft 218 kts 97°
2026-05-05 04:16 49.17571 -123.06473 4278 ft 252 kts 97°
2026-05-05 04:16 49.17333 -123.03681 4734 ft 274 kts 97°
2026-05-05 04:16 49.17089 -123.00742 5534 ft 281 kts 96°
2026-05-05 04:17 49.16828 -122.97780 6382 ft 281 kts 102°
2026-05-05 04:17 49.15902 -122.95123 7028 ft 291 kts 135°
2026-05-05 04:17 49.14152 -122.93637 7896 ft 292 kts 168°
2026-05-05 04:17 49.12130 -122.93585 8687 ft 292 kts 188°
2026-05-05 04:18 49.10786 -122.93886 9085 ft 298 kts 189°
2026-05-05 04:18 49.08174 -122.94517 9956 ft 305 kts 189°
2026-05-05 04:18 49.06046 -122.95053 10438 ft 320 kts 189°
2026-05-05 04:18 49.03768 -122.95636 10682 ft 343 kts 189°
2026-05-05 04:19 49.01371 -122.96249 11307 ft 355 kts 189°
2026-05-05 04:19 48.98909 -122.96876 12161 ft 362 kts 189°
2026-05-05 04:19 48.96436 -122.97500 13163 ft 368 kts 189°
2026-05-05 04:19 48.93885 -122.98141 14089 ft 375 kts 189°
2026-05-05 04:20 48.91289 -122.98789 14940 ft 382 kts 190°
2026-05-05 04:20 48.88638 -122.99449 15816 ft 389 kts 190°
2026-05-05 04:20 48.85947 -123.00116 16674 ft 395 kts 190°
2026-05-05 04:20 48.83212 -123.00792 17533 ft 402 kts 190°
2026-05-05 04:21 48.80427 -123.01481 18380 ft 407 kts 190°
2026-05-05 04:21 48.77612 -123.02174 19124 ft 413 kts 190°
2026-05-05 04:21 48.74754 -123.02877 19839 ft 418 kts 190°
2026-05-05 04:21 48.71861 -123.03588 20531 ft 424 kts 189°
2026-05-05 04:22 48.68927 -123.04308 21222 ft 430 kts 189°
2026-05-05 04:22 48.65948 -123.05039 21910 ft 436 kts 189°
2026-05-05 04:22 48.62938 -123.05776 22610 ft 440 kts 189°
2026-05-05 04:22 48.59900 -123.06519 23335 ft 445 kts 189°
2026-05-05 04:23 48.56825 -123.07270 23932 ft 450 kts 189°
2026-05-05 04:23 48.53725 -123.08026 24537 ft 454 kts 189°
2026-05-05 04:23 48.50636 -123.08779 25139 ft 457 kts 190°
2026-05-05 04:23 48.47443 -123.09556 25763 ft 461 kts 190°
2026-05-05 04:24 48.44266 -123.10329 26363 ft 465 kts 190°
2026-05-05 04:24 48.41096 -123.11099 26952 ft 469 kts 190°
2026-05-05 04:24 48.37861 -123.11883 27552 ft 473 kts 190°
2026-05-05 04:25 48.32370 -123.13213 28561 ft 480 kts 190°
2026-05-05 04:25 48.29104 -123.14002 29176 ft 482 kts 190°
2026-05-05 04:25 48.24649 -123.15076 30032 ft 487 kts 190°
2026-05-05 04:25 48.21286 -123.15887 30476 ft 492 kts 190°
2026-05-05 04:26 48.19939 -123.16211 30655 ft 494 kts 190°
2026-05-05 04:26 48.16863 -123.16951 31067 ft 497 kts 189°
2026-05-05 04:26 48.13432 -123.17775 31530 ft 501 kts 189°
2026-05-05 04:27 48.09977 -123.18603 31982 ft 505 kts 189°
2026-05-05 04:27 48.05361 -123.19709 32578 ft 509 kts 189°
2026-05-05 04:27 48.03035 -123.20265 32892 ft 511 kts 189°
2026-05-05 04:27 47.99468 -123.21117 33349 ft 514 kts 189°
2026-05-05 04:28 47.95970 -123.21951 33769 ft 517 kts 189°
2026-05-05 04:28 47.92410 -123.22799 34116 ft 520 kts 189°
2026-05-05 04:28 47.88830 -123.23645 34496 ft 522 kts 189°
2026-05-05 04:28 47.85233 -123.24497 34856 ft 524 kts 189°
2026-05-05 04:29 47.81625 -123.25354 35213 ft 525 kts 189°
2026-05-05 04:29 47.78017 -123.26213 35675 ft 524 kts 189°
2026-05-05 04:29 47.74416 -123.27068 36083 ft 524 kts 189°
2026-05-05 04:29 47.70817 -123.27915 36418 ft 524 kts 189°
2026-05-05 04:30 47.67205 -123.28764 36794 ft 524 kts 188°
2026-05-05 04:30 47.63618 -123.29613 37299 ft 521 kts 188°
2026-05-05 04:30 47.60042 -123.30462 37710 ft 521 kts 188°
2026-05-05 04:30 47.56460 -123.31303 38022 ft 522 kts 188°
2026-05-05 04:31 47.52873 -123.32137 38420 ft 520 kts 188°
2026-05-05 04:31 47.49299 -123.32971 38779 ft 519 kts 188°
2026-05-05 04:31 47.45744 -123.33803 39152 ft 517 kts 188°
2026-05-05 04:31 47.42187 -123.34633 39461 ft 516 kts 188°
2026-05-05 04:32 47.38641 -123.35464 39815 ft 514 kts 188°
2026-05-05 04:32 47.35118 -123.36288 40176 ft 512 kts 188°
2026-05-05 04:32 47.31608 -123.37105 40576 ft 509 kts 188°
2026-05-05 04:32 47.28123 -123.37913 40931 ft 506 kts 188°
2026-05-05 04:33 47.24681 -123.38711 40944 ft 511 kts 188°
2026-05-05 04:33 47.17642 -123.40342 40956 ft 511 kts 187°
2026-05-05 04:34 47.10605 -123.41018 40949 ft 504 kts 176°
2026-05-05 04:34 47.03597 -123.40659 40966 ft 503 kts 176°
2026-05-05 04:35 46.96601 -123.40378 40964 ft 503 kts 176°
2026-05-05 04:35 46.89608 -123.40154 40974 ft 503 kts 176°
2026-05-05 04:36 46.82615 -123.39934 40972 ft 502 kts 176°
2026-05-05 04:36 46.75672 -123.39717 40966 ft 503 kts 176°
2026-05-05 04:37 46.68673 -123.39497 40980 ft 503 kts 176°
2026-05-05 04:37 46.61660 -123.39278 40980 ft 504 kts 176°
2026-05-05 04:38 46.54645 -123.39058 40981 ft 504 kts 176°
2026-05-05 04:38 46.47620 -123.38839 40970 ft 505 kts 176°
2026-05-05 04:39 46.40592 -123.38621 40994 ft 505 kts 176°
2026-05-05 04:39 46.33557 -123.38403 40984 ft 505 kts 176°
2026-05-05 04:40 46.26568 -123.38187 40994 ft 505 kts 176°
2026-05-05 04:40 46.19542 -123.37970 41004 ft 505 kts 176°
2026-05-05 04:41 46.12511 -123.37754 40996 ft 505 kts 176°
2026-05-05 04:41 46.05474 -123.37538 40992 ft 506 kts 176°
2026-05-05 04:42 45.98434 -123.37323 40976 ft 505 kts 176°
2026-05-05 04:42 45.91403 -123.37108 40970 ft 505 kts 176°
2026-05-05 04:42 45.87879 -123.37000 41137 ft 505 kts 176°
2026-05-05 04:43 45.84374 -123.36894 41075 ft 504 kts 176°
2026-05-05 04:43 45.77486 -123.36688 40962 ft 494 kts 176°
2026-05-05 04:44 45.70614 -123.36478 40970 ft 494 kts 176°
2026-05-05 04:44 45.63729 -123.36268 40944 ft 494 kts 176°
2026-05-05 04:45 45.56843 -123.36059 40957 ft 494 kts 176°
2026-05-05 04:45 45.49969 -123.35853 40954 ft 494 kts 176°
2026-05-05 04:46 45.43087 -123.35646 40957 ft 494 kts 176°
2026-05-05 04:46 45.36223 -123.35441 40942 ft 493 kts 176°
2026-05-05 04:47 45.29373 -123.35237 40965 ft 492 kts 176°
2026-05-05 04:47 45.22527 -123.35033 40944 ft 491 kts 176°
2026-05-05 04:48 45.15699 -123.34830 40939 ft 490 kts 176°
2026-05-05 04:48 45.08888 -123.34628 40940 ft 489 kts 176°
2026-05-05 04:49 45.02137 -123.34428 40958 ft 487 kts 176°
2026-05-05 04:49 44.95543 -123.34233 40958 ft 486 kts 176°
2026-05-05 04:50 44.93667 -123.34178 40960 ft 486 kts 176°
2026-05-05 04:50 44.86914 -123.33979 40965 ft 485 kts 176°
2026-05-05 04:51 44.80169 -123.33781 40973 ft 484 kts 176°
2026-05-05 04:51 44.73434 -123.33584 40983 ft 484 kts 176°
2026-05-05 04:52 44.66735 -123.33388 40994 ft 484 kts 176°
2026-05-05 04:52 44.60006 -123.33191 41008 ft 484 kts 176°
2026-05-05 04:53 44.53273 -123.32995 41008 ft 484 kts 176°
2026-05-05 04:53 44.46542 -123.32781 41001 ft 484 kts 176°
2026-05-05 04:54 44.39803 -123.32497 41003 ft 485 kts 175°
2026-05-05 04:54 44.33058 -123.32211 40999 ft 485 kts 176°
2026-05-05 04:55 44.26311 -123.31936 41019 ft 485 kts 176°
2026-05-05 04:55 44.19551 -123.31663 41015 ft 485 kts 176°
2026-05-05 04:56 44.12843 -123.31393 41026 ft 485 kts 176°
2026-05-05 04:56 44.06099 -123.31125 41016 ft 485 kts 176°
2026-05-05 04:57 43.99360 -123.30858 41019 ft 484 kts 176°
2026-05-05 04:57 43.92647 -123.30593 40833 ft 488 kts 174°
2026-05-05 04:58 43.85797 -123.30318 40985 ft 497 kts 174°
2026-05-05 04:58 43.78804 -123.30039 41014 ft 507 kts 174°
2026-05-05 04:59 43.71717 -123.29762 41004 ft 510 kts 174°
2026-05-05 04:59 43.64631 -123.29487 41005 ft 509 kts 174°
2026-05-05 05:00 43.57547 -123.29212 41003 ft 508 kts 174°
2026-05-05 05:00 43.50483 -123.28936 41020 ft 507 kts 174°
2026-05-05 05:01 43.43492 -123.28663 41022 ft 506 kts 174°
2026-05-05 05:01 43.36457 -123.28388 41035 ft 504 kts 174°
2026-05-05 05:02 43.29458 -123.28117 41041 ft 503 kts 174°
2026-05-05 05:02 43.22464 -123.27846 41028 ft 502 kts 174°
2026-05-05 05:03 43.15477 -123.27576 41031 ft 502 kts 174°
2026-05-05 05:03 43.08488 -123.27305 41036 ft 502 kts 174°
2026-05-05 05:04 43.01545 -123.27037 41009 ft 503 kts 174°
2026-05-05 05:04 42.94537 -123.26768 40991 ft 504 kts 174°
2026-05-05 05:05 42.87509 -123.26499 40974 ft 505 kts 173°
2026-05-05 05:05 42.80466 -123.26230 40965 ft 506 kts 174°
2026-05-05 05:06 42.73415 -123.25961 40952 ft 507 kts 174°
2026-05-05 05:06 42.66363 -123.25694 40957 ft 507 kts 173°
2026-05-05 05:07 42.59306 -123.25424 40938 ft 507 kts 173°
2026-05-05 05:07 42.52253 -123.25157 40937 ft 507 kts 173°
2026-05-05 05:08 42.45199 -123.24894 40936 ft 507 kts 173°
2026-05-05 05:08 42.38190 -123.24638 40925 ft 507 kts 173°
2026-05-05 05:09 42.31151 -123.24386 40919 ft 505 kts 173°
2026-05-05 05:09 42.24134 -123.24133 40934 ft 503 kts 173°
2026-05-05 05:10 42.17133 -123.23876 40909 ft 502 kts 173°
2026-05-05 05:10 42.10162 -123.23628 40920 ft 501 kts 173°
2026-05-05 05:11 42.03205 -123.23383 40930 ft 499 kts 173°
2026-05-05 05:11 41.96427 -123.23135 40956 ft 497 kts 173°
2026-05-05 05:12 41.91833 -123.22969 40915 ft 497 kts 173°
2026-05-05 05:12 41.84916 -123.22724 40933 ft 495 kts 173°
2026-05-05 05:13 41.78040 -123.22472 40930 ft 495 kts 173°
2026-05-05 05:13 41.71203 -123.22235 40955 ft 495 kts 173°
2026-05-05 05:14 41.64307 -123.21985 40967 ft 495 kts 173°
2026-05-05 05:14 41.57410 -123.21755 40974 ft 496 kts 173°
2026-05-05 05:15 41.50502 -123.21490 40986 ft 497 kts 173°
2026-05-05 05:15 41.43596 -123.21249 40994 ft 497 kts 173°
2026-05-05 05:16 41.36683 -123.21010 41000 ft 497 kts 173°
2026-05-05 05:16 41.30931 -123.20816 40985 ft 497 kts 173°
2026-05-05 05:17 41.22845 -123.20613 41007 ft 497 kts 174°
2026-05-05 05:17 41.17097 -123.20480 41007 ft 497 kts 174°
2026-05-05 05:18 41.09063 -123.20287 41004 ft 497 kts 174°
2026-05-05 05:18 41.03270 -123.20140 41001 ft 496 kts 174°
2026-05-05 05:19 40.96376 -123.19969 40999 ft 496 kts 174°
2026-05-05 05:19 40.89517 -123.19802 41011 ft 496 kts 174°
2026-05-05 05:20 40.82612 -123.19630 40995 ft 496 kts 174°
2026-05-05 05:20 40.75705 -123.19452 41002 ft 495 kts 174°
2026-05-05 05:21 40.68820 -123.19284 41000 ft 494 kts 174°
2026-05-05 05:21 40.61984 -123.19118 41017 ft 495 kts 174°
2026-05-05 05:22 40.55103 -123.18947 41002 ft 494 kts 174°
2026-05-05 05:22 40.48226 -123.18778 41030 ft 494 kts 174°
2026-05-05 05:23 40.41346 -123.18608 41027 ft 495 kts 174°
2026-05-05 05:23 40.34461 -123.18439 41014 ft 495 kts 174°
2026-05-05 05:24 40.27567 -123.18270 41031 ft 495 kts 174°
2026-05-05 05:24 40.20679 -123.18101 41023 ft 495 kts 174°
2026-05-05 05:25 40.13781 -123.17934 41024 ft 495 kts 174°
2026-05-05 05:25 40.06885 -123.17768 41024 ft 496 kts 174°
2026-05-05 05:26 39.99985 -123.17599 41020 ft 496 kts 174°
2026-05-05 05:26 39.93128 -123.17412 41031 ft 495 kts 174°
2026-05-05 05:27 39.86239 -123.17089 41041 ft 495 kts 174°
2026-05-05 05:27 39.75891 -123.16572 41034 ft 496 kts 174°
2026-05-05 05:28 39.68990 -123.16247 41025 ft 496 kts 174°
2026-05-05 05:28 39.62089 -123.15930 41033 ft 496 kts 174°
2026-05-05 05:29 39.55191 -123.15614 41042 ft 496 kts 174°
2026-05-05 05:29 39.48320 -123.15296 40731 ft 500 kts 174°
2026-05-05 05:30 39.44823 -123.15132 40026 ft 503 kts 173°
2026-05-05 05:30 39.41328 -123.14974 39360 ft 502 kts 173°
2026-05-05 05:30 39.37831 -123.14816 38720 ft 501 kts 172°
2026-05-05 05:30 39.34366 -123.14658 38182 ft 496 kts 173°
2026-05-05 05:31 39.30940 -123.14502 37648 ft 490 kts 173°
2026-05-05 05:31 39.27542 -123.14348 37166 ft 485 kts 172°
2026-05-05 05:31 39.24183 -123.14195 36703 ft 480 kts 172°
2026-05-05 05:31 39.20872 -123.14041 36257 ft 474 kts 172°
2026-05-05 05:32 39.17594 -123.13889 35847 ft 469 kts 172°
2026-05-05 05:32 39.14408 -123.13745 35379 ft 465 kts 171°
2026-05-05 05:32 39.11374 -123.13336 34942 ft 453 kts 161°
2026-05-05 05:33 39.09070 -123.12566 34597 ft 442 kts 153°
2026-05-05 05:33 39.06455 -123.11243 34183 ft 431 kts 146°
2026-05-05 05:33 39.03886 -123.09389 33682 ft 418 kts 138°
2026-05-05 05:33 39.01464 -123.07354 33229 ft 413 kts 138°
2026-05-05 05:34 38.99068 -123.05353 32779 ft 409 kts 139°
2026-05-05 05:34 38.96690 -123.03387 32330 ft 404 kts 139°
2026-05-05 05:34 38.94325 -123.01452 31901 ft 401 kts 140°
2026-05-05 05:34 38.91980 -122.99544 31466 ft 397 kts 140°
2026-05-05 05:35 38.89655 -122.97656 31020 ft 393 kts 140°
2026-05-05 05:35 38.87302 -122.95870 30630 ft 395 kts 148°
2026-05-05 05:35 38.84652 -122.94852 30223 ft 400 kts 161°
2026-05-05 05:35 38.81917 -122.94118 29754 ft 405 kts 162°
2026-05-05 05:36 38.79137 -122.93359 29260 ft 411 kts 162°
2026-05-05 05:36 38.76344 -122.92574 28757 ft 410 kts 161°
2026-05-05 05:36 38.73617 -122.91788 28320 ft 405 kts 161°
2026-05-05 05:36 38.70878 -122.90985 27852 ft 402 kts 161°
2026-05-05 05:37 38.68161 -122.90182 27410 ft 399 kts 161°
2026-05-05 05:37 38.65460 -122.89383 27014 ft 397 kts 161°
2026-05-05 05:37 38.62774 -122.88590 26598 ft 394 kts 161°
2026-05-05 05:37 38.60112 -122.87805 26174 ft 392 kts 161°
2026-05-05 05:38 38.57465 -122.87025 25758 ft 390 kts 161°
2026-05-05 05:38 38.54826 -122.86248 25343 ft 388 kts 161°
2026-05-05 05:38 38.52198 -122.85475 24930 ft 386 kts 161°
2026-05-05 05:38 38.49580 -122.84704 24531 ft 384 kts 161°
2026-05-05 05:39 38.46981 -122.83939 24118 ft 383 kts 161°
2026-05-05 05:39 38.44414 -122.83184 23713 ft 382 kts 161°
2026-05-05 05:39 38.41819 -122.82422 23247 ft 381 kts 161°
2026-05-05 05:39 38.39237 -122.81664 22805 ft 379 kts 161°
2026-05-05 05:40 38.36678 -122.80915 22358 ft 376 kts 161°
2026-05-05 05:40 38.34137 -122.80170 21957 ft 373 kts 161°
2026-05-05 05:40 38.31613 -122.79431 21563 ft 371 kts 161°
2026-05-05 05:40 38.29106 -122.78697 21172 ft 368 kts 161°
2026-05-05 05:41 38.26618 -122.77968 20782 ft 366 kts 161°
2026-05-05 05:41 38.24212 -122.77265 20402 ft 364 kts 161°
2026-05-05 05:41 38.21746 -122.76545 20008 ft 363 kts 161°
2026-05-05 05:41 38.19292 -122.75832 19600 ft 361 kts 161°
2026-05-05 05:42 38.16849 -122.75123 19221 ft 360 kts 160°
2026-05-05 05:42 38.14405 -122.74417 18811 ft 360 kts 161°
2026-05-05 05:42 38.11995 -122.73713 18378 ft 361 kts 161°
2026-05-05 05:42 38.09545 -122.72996 17881 ft 361 kts 161°
2026-05-05 05:43 38.07108 -122.72287 17443 ft 359 kts 161°
2026-05-05 05:43 38.04674 -122.71582 17025 ft 358 kts 162°
2026-05-05 05:43 38.02251 -122.70881 16605 ft 357 kts 162°
2026-05-05 05:43 37.99836 -122.70183 16183 ft 355 kts 162°
2026-05-05 05:44 37.97428 -122.69486 15784 ft 354 kts 162°
2026-05-05 05:44 37.95035 -122.68794 15360 ft 352 kts 163°
2026-05-05 05:44 37.92649 -122.68103 14960 ft 350 kts 163°
2026-05-05 05:44 37.90323 -122.67345 14543 ft 339 kts 154°
2026-05-05 05:45 37.88373 -122.65821 14143 ft 321 kts 133°
2026-05-05 05:45 37.86738 -122.63964 13785 ft 318 kts 134°
2026-05-05 05:45 37.85056 -122.62142 13360 ft 318 kts 135°
2026-05-05 05:45 37.83368 -122.60347 12969 ft 316 kts 136°
2026-05-05 05:46 37.81688 -122.58569 12581 ft 314 kts 136°
2026-05-05 05:46 37.80021 -122.56805 12201 ft 312 kts 137°
2026-05-05 05:46 37.78366 -122.55053 11828 ft 309 kts 137°
2026-05-05 05:46 37.76752 -122.53345 11465 ft 307 kts 137°
2026-05-05 05:47 37.75151 -122.51652 11143 ft 304 kts 137°
2026-05-05 05:47 37.73562 -122.49974 11009 ft 294 kts 137°
2026-05-05 05:47 37.71992 -122.48308 10471 ft 300 kts 138°
2026-05-05 05:47 37.70395 -122.46606 10122 ft 299 kts 138°
2026-05-05 05:48 37.68825 -122.44937 10020 ft 292 kts 139°
2026-05-05 05:48 37.67289 -122.43337 9993 ft 290 kts 139°
2026-05-05 05:48 37.65763 -122.41786 9989 ft 289 kts 140°
2026-05-05 05:48 37.64167 -122.40174 10012 ft 291 kts 140°
2026-05-05 05:49 37.62612 -122.38605 9991 ft 286 kts 140°
2026-05-05 05:49 37.61075 -122.37052 9920 ft 284 kts 140°
2026-05-05 05:49 37.59498 -122.35452 9214 ft 293 kts 140°
2026-05-05 05:49 37.58005 -122.33930 8652 ft 281 kts 140°
2026-05-05 05:50 37.56532 -122.32412 8163 ft 267 kts 140°
2026-05-05 05:50 37.55117 -122.30932 7702 ft 265 kts 140°
2026-05-05 05:50 37.53714 -122.29446 7107 ft 265 kts 140°
2026-05-05 05:50 37.52313 -122.27924 6497 ft 268 kts 140°
2026-05-05 05:51 37.50918 -122.26392 5814 ft 265 kts 140°
2026-05-05 05:51 37.49618 -122.24956 5206 ft 263 kts 140°
2026-05-05 05:51 37.48250 -122.23426 4530 ft 260 kts 140°
2026-05-05 05:51 37.46928 -122.21939 4208 ft 261 kts 140°
2026-05-05 05:52 37.45667 -122.20310 4039 ft 257 kts 123°
2026-05-05 05:52 37.45234 -122.18182 3975 ft 251 kts 85°
2026-05-05 05:52 37.45852 -122.16197 3726 ft 247 kts 49°
2026-05-05 05:52 37.47151 -122.14832 3477 ft 243 kts 27°
2026-05-05 05:53 37.48641 -122.14081 3211 ft 239 kts
2026-05-05 05:53 37.49578 -122.13999 3079 ft 235 kts 353°
2026-05-05 05:53 37.51113 -122.14458 2997 ft 222 kts 333°
2026-05-05 05:53 37.52305 -122.15565 2999 ft 213 kts 313°
2026-05-05 05:54 37.53329 -122.16931 3002 ft 214 kts 308°
2026-05-05 05:54 37.54142 -122.18482 3001 ft 211 kts 297°
2026-05-05 05:54 37.54819 -122.20097 2821 ft 206 kts 296°
2026-05-05 05:54 37.55452 -122.21627 2561 ft 194 kts 297°
2026-05-05 05:55 37.56052 -122.23064 2325 ft 181 kts 297°
2026-05-05 05:55 37.56622 -122.24425 2058 ft 170 kts 297°
2026-05-05 05:55 37.57068 -122.25488 1868 ft 156 kts 297°
2026-05-05 05:55 37.57513 -122.26549 1731 ft 139 kts 298°
2026-05-05 05:56 37.57942 -122.27572 1491 ft 127 kts 298°
2026-05-05 05:56 37.58175 -122.28127 1423 ft 125 kts 298°
2026-05-05 05:56 37.58533 -122.28982 1293 ft 125 kts 297°
2026-05-05 05:56 37.58924 -122.29912 1117 ft 124 kts 297°
2026-05-05 05:57 37.59324 -122.30870 940 ft 126 kts 297°
2026-05-05 05:57 37.59726 -122.31825 764 ft 126 kts 298°
2026-05-05 05:57 37.60066 -122.32636 609 ft 125 kts 298°
2026-05-05 05:57 37.60462 -122.33587 465 ft 122 kts 297°
2026-05-05 05:58 37.60851 -122.34517 291 ft 120 kts 298°
2026-05-05 05:58 37.61238 -122.35443 121 ft 120 kts 298°
2026-05-05 05:58 37.61626 -122.36361 38 ft 117 kts 298°
2026-05-05 05:58 37.61952 -122.37144 27 ft 78 kts 298°
2026-05-05 05:59 37.62122 -122.37548 26 ft 30 kts 297°
2026-05-05 05:59 37.62212 -122.37787 26 ft 29 kts 287°
2026-05-05 05:59 37.62230 -122.37979 26 ft 20 kts 268°
2026-05-05 05:59 37.62228 -122.38084 26 ft 12 kts 270°
2026-05-05 06:00 37.62227 -122.38190 26 ft 12 kts 260°
2026-05-05 06:00 37.62223 -122.38293 26 ft 12 kts 270°
2026-05-05 06:00 37.62221 -122.38398 26 ft 12 kts 269°
2026-05-05 06:00 37.62219 -122.38501 26 ft 12 kts 268°
2026-05-05 06:01 37.62198 -122.38603 26 ft 12 kts 240°
2026-05-05 06:01 37.62179 -122.38698 26 ft 4 kts 274°
2026-05-05 06:01 37.62176 -122.38706 26 ft 1 kts 250°
2026-05-05 06:01 37.62162 -122.38719 42 ft 6 kts 208°
2026-05-05 06:02 37.62129 -122.38740 26 ft 5 kts 207°
2026-05-05 06:02 37.62103 -122.38757 26 ft 4 kts 207°
2026-05-05 06:02 37.62087 -122.38767 26 ft 2 kts 207°
2026-05-05 06:02 37.62081 -122.38771 26 ft 0 kts 207°